World > North America > United States > Illinois   City of Marion, IL
Hourly regional weather for Marion, IllinoisMarion, Illinois Regional Hourly Weather

Marion, Illinois Regional Weather

regional weather marion, ilHOURLY REGIONAL WEATHER FOR MARION, IL
Lat: 37.73N, Lon: 88.94W 
Web Search

Pass this page to a friend. Tell them to point their camera at the QR Code near the bottom of this page.

Feedback


°F Click to change Marion hourly weather to Imperial units.Click to change Marion hourly weather to Metric units. °C
Marion Weather Map
UTC Time: 8/5/2021, 08:33
Your Time:

Marion, IL Regional Weather

Expires:202108050900;;999449
ASUS43 KLOT 050808
RWRIL 

ILLINOIS REGIONAL WEATHER ROUNDUP
NATIONAL WEATHER SERVICE CHICAGO/ROMEOVILLE IL
300 AM CDT THU AUG 05 2021

NOTE: "FAIR" INDICATES FEW OR NO CLOUDS BELOW 12,000 FEET WITH NO
SIGNIFICANT WEATHER AND/OR OBSTRUCTIONS TO VISIBILITY.

* THESE STATIONS ARE NOT UNDER NWS QUALITY CONTROL. THEY ALSO MAY NOT
  REPORT WEATHER SUCH AS PRECIPITATION OR FOG.


ILZ064>066-069>071-074>076-080>082-084>086-088>090-092>094-050900-
SOUTH-CENTRAL ILLINOIS
  
CITY           SKY/WX    TMP DP  RH WIND       PRES   REMARKS
CARBONDALE     FOG       56  55  97 CALM      30.10F VSB 1/4          
CAIRO*         CLEAR     58  58  99 CALM      30.10S                  
EFFINGHAM*     CLEAR     61  61  98 CALM      30.12F FOG              
MARION         FOG       58  58 100 CALM      30.11F VSB 1            
MT. VERNON     LGT RAIN  57  57 100 CALM      30.11S VSB 1            
CENTRALIA*     CLEAR     59  59 100 CALM      30.10F                  
SALEM*         CLEAR     62  61  97 CALM      30.11F                  
METROPOLIS*    CLEAR     60  60 100 CALM      30.10S                  
$$


SKY/WX - Weather  TMP - Temperature  DP - Dew Point  RH - Relative Humidity
WIND - Wind Direction/Speed PRES - Barometric Pressure VSB - Visibility
WCI - Wind Chill Index E13G22 Wind - East Wind 13 mph/Gusts of 22 mph